Regional Weather Roundup
Issued by NWS Albany, NY

Home | Current Version | Previous Version | Text Only | Print | Product List | Glossary On
Versions: 1 2 3 4 5 6 7 8 9 10 11 12 13 14 15 16 17 18 19 20 21 22 23 24 25 26 27 28 29 30 31 32 33 34 35 36 37 38 39 40 41 42 43 44 45 46 47 48 49 50
387
ASUS41 KALY 290310
RWRALY

NEW YORK STATE HOURLY WEATHER ROUNDUP
NATIONAL WEATHER SERVICE ALBANY NY
1100 PM EDT THU JUL 28 2016

NOTE: "FAIR" INDICATES FEW OR NO CLOUDS BELOW 12,000 FEET WITH NO
SIGNIFICANT WEATHER AND/OR NO OBSTRUCTIONS TO VISIBILITY.

NYZ032-033-038>043-046>054-057>066-NYZ062>081-082-084-290400-
EAST


CITY           SKY/WX    TMP DP  RH WIND       PRES   REMARKS
ALBANY         CLOUDY    75  66  73 N5        29.88R
GLENS FALLS    CLOUDY    70  66  87 N6        29.89S
POUGHKEEPSIE   LGT RAIN  76  70  82 S3        29.88S
NEWBURGH       DRIZZLE   72  72 100 W7        29.92R
MONTGOMERY     LGT RAIN  73  71  93 S6        29.91R
WHITE PLAINS   DRIZZLE   77  70  79 W5        29.89S
ISLIP          CLOUDY    78  70  76 CALM      29.87F
NEW YORK CITY  LGT RAIN  80  69  69 NW7       29.87R
CENTRAL PARK   CLOUDY    79  68  69 VRB5      29.91R HAZE
$$

NYZ005>009-017-018-044>046-055-056-290400-
CENTRAL


CITY           SKY/WX    TMP DP  RH WIND       PRES   REMARKS
FULTON         CLOUDY    71  65  81 CALM      29.89F
SYRACUSE       CLOUDY    71  64  78 CALM      29.89S
ROME           CLOUDY    69  66  90 CALM      29.90S
ELMIRA         MOCLDY    74  60  61 E6        29.90S
BINGHAMTON     MOCLDY    72  65  78 E5        29.94R
MONTICELLO     PTCLDY    70  66  88 CALM      29.96S
$$

NYZ026>034-041>043-087-290400-
NORTH


CITY           SKY/WX    TMP DP  RH WIND       PRES   REMARKS
WATERTOWN      MOCLDY    69  66  90 NE3       29.90S
FORT DRUM      NOT AVBL
MASSENA        CLOUDY    66  63  90 CALM      29.91R
SARANAC LAKE   CLOUDY    64  62  93 CALM      29.96R FOG
PLATTSBURGH    CLOUDY    68  67  96 CALM      29.90S
$$

NYZ001>004-010>016-019>021-085-290400-
WEST


CITY           SKY/WX    TMP DP  RH WIND       PRES   REMARKS
NIAGARA FALLS  CLOUDY    74  62  66 CALM      29.90F
BUFFALO        CLOUDY    75  62  64 CALM      29.91S
DUNKIRK        PTCLDY    70  66  87 CALM      29.90F
JAMESTOWN      MOCLDY    70  63  78 CALM      29.96S
WELLSVILLE     CLOUDY    71  65  81 N5        29.99R
ROCHESTER      CLOUDY    73  61  65 CALM      29.91R
PENN YAN       PTCLDY    70  60  70 CALM      29.92S
$$

             KEY
       WCI = WIND CHILL INDEX
       VSB = VISIBILITY
       HX  = HEAT INDEX
$$




USA.gov is the U.S. government's official web portal to all federal, state and local government web resources and services.